Time,TemperatureF,DewpointF,PressureIn,WindDirection,WindDirectionDegrees,WindSpeedMPH,WindSpeedGustMPH,Humidity,HourlyPrecipIn,Conditions,Clouds,dailyrainin,SolarRadiationWatts/m^2,SoftwareType,DateUTC
2015-06-02 00:04:00,71.2,61.3,30.03,SSE,148,2.1,4.6,71,0.00,CLR,,0.00,0.0,WeatherDisplay:10.37,2015-06-02 05:04:00,
2015-06-02 00:09:00,71.1,61.2,30.02,SSE,161,3.0,4.6,71,0.00,CLR,,0.00,0.0,WeatherDisplay:10.37,2015-06-02 05:09:00,
2015-06-02 00:14:00,71.1,61.2,30.02,SSE,166,1.3,4.6,71,0.00,CLR,,0.00,0.0,WeatherDisplay:10.37,2015-06-02 05:14:00,
2015-06-02 00:19:00,71.0,61.5,30.03,SSE,166,0.4,2.3,72,0.00,CLR,,0.00,0.0,WeatherDisplay:10.37,2015-06-02 05:19:00,
2015-06-02 00:24:00,70.8,61.7,30.02,SSE,166,0.6,3.5,73,0.00,CLR,,0.00,0.0,WeatherDisplay:10.37,2015-06-02 05:24:00,
2015-06-02 00:29:00,70.6,61.5,30.02,South,173,0.1,1.2,73,0.00,CLR,,0.00,0.0,WeatherDisplay:10.37,2015-06-02 05:29:00,
2015-06-02 00:34:00,70.5,61.8,30.02,SE,142,0.7,2.0,74,0.00,CLR,,0.00,0.0,WeatherDisplay:10.37,2015-06-02 05:34:00,
2015-06-02 00:39:00,70.3,61.6,30.02,SE,141,0.9,2.3,74,0.00,CLR,,0.00,0.0,WeatherDisplay:10.37,2015-06-02 05:39:00,
2015-06-02 00:44:00,70.1,61.4,30.02,SE,139,1.6,3.1,74,0.00,CLR,,0.00,0.0,WeatherDisplay:10.37,2015-06-02 05:44:00,
2015-06-02 00:49:00,69.9,61.6,30.02,SE,145,1.4,2.3,75,0.00,CLR,,0.00,0.0,WeatherDisplay:10.37,2015-06-02 05:49:00,
2015-06-02 00:54:00,69.8,61.9,30.02,SSE,154,0.0,0.0,76,0.00,CLR,,0.00,0.0,WeatherDisplay:10.37,2015-06-02 05:54:00,
2015-06-02 00:59:00,69.7,61.8,30.02,SE,140,1.2,2.3,76,0.00,CLR,,0.00,0.0,WeatherDisplay:10.37,2015-06-02 05:59:00,
2015-06-02 01:04:00,69.5,62.0,30.02,SE,140,0.8,2.3,77,0.00,CLR,,0.00,0.0,WeatherDisplay:10.37,2015-06-02 06:04:00,
2015-06-02 01:09:00,69.3,62.1,30.02,SE,140,1.0,2.3,78,0.00,CLR,,0.00,0.0,WeatherDisplay:10.37,2015-06-02 06:09:00,
2015-06-02 01:14:00,69.2,62.0,30.02,SE,139,1.0,1.2,78,0.00,CLR,,0.00,0.0,WeatherDisplay:10.37,2015-06-02 06:14:00,
2015-06-02 01:19:00,69.0,61.9,30.02,SE,126,2.1,3.1,78,0.00,CLR,,0.00,0.0,WeatherDisplay:10.37,2015-06-02 06:19:00,
2015-06-02 01:24:00,68.9,62.1,30.02,SE,133,2.0,3.5,79,0.00,CLR,,0.00,0.0,WeatherDisplay:10.37,2015-06-02 06:24:00,
2015-06-02 01:29:00,68.7,62.3,30.02,ESE,121,2.0,3.5,80,0.00,CLR,,0.00,0.0,WeatherDisplay:10.37,2015-06-02 06:29:00,
2015-06-02 01:34:00,68.7,62.3,30.01,ESE,109,2.9,4.6,80,0.00,CLR,,0.00,0.0,WeatherDisplay:10.37,2015-06-02 06:34:00,
2015-06-02 01:39:00,68.7,62.3,30.01,ESE,115,2.3,4.6,80,0.00,CLR,,0.00,0.0,WeatherDisplay:10.37,2015-06-02 06:39:00,
2015-06-02 01:44:00,68.8,62.4,30.01,ESE,107,3.5,4.6,80,0.00,CLR,,0.00,0.0,WeatherDisplay:10.37,2015-06-02 06:44:00,
2015-06-02 01:49:00,68.9,62.5,30.01,SSE,161,2.0,2.3,80,0.00,CLR,,0.00,0.0,WeatherDisplay:10.37,2015-06-02 06:49:00,
2015-06-02 01:54:00,69.0,62.6,30.01,South,186,0.1,2.3,80,0.00,CLR,,0.00,0.0,WeatherDisplay:10.37,2015-06-02 06:54:00,
2015-06-02 01:59:00,69.0,62.6,30.01,SSE,161,1.3,3.5,80,0.00,CLR,,0.00,0.0,WeatherDisplay:10.37,2015-06-02 06:59:00,
2015-06-02 02:09:00,68.8,62.7,30.01,SSE,150,1.7,3.5,81,0.00,CLR,,0.00,0.0,WeatherDisplay:10.37,2015-06-02 07:09:00,
2015-06-02 02:14:00,68.7,62.6,30.02,SE,128,3.5,4.6,81,0.00,CLR,,0.00,0.0,WeatherDisplay:10.37,2015-06-02 07:14:00,
2015-06-02 02:19:00,68.6,62.5,30.01,SSE,152,1.5,2.3,81,0.00,CLR,,0.00,0.0,WeatherDisplay:10.37,2015-06-02 07:19:00,
2015-06-02 02:24:00,68.5,62.4,30.02,SSE,166,0.8,2.3,81,0.00,CLR,,0.00,0.0,WeatherDisplay:10.37,2015-06-02 07:24:00,
2015-06-02 02:29:00,68.4,62.7,30.02,SSE,165,0.7,3.5,82,0.00,CLR,,0.00,0.0,WeatherDisplay:10.37,2015-06-02 07:29:00,
2015-06-02 02:34:00,68.3,62.6,30.02,SSE,158,0.0,3.5,82,0.00,CLR,,0.00,0.0,WeatherDisplay:10.37,2015-06-02 07:34:00,
2015-06-02 02:39:00,68.1,62.4,30.01,SSE,163,1.6,3.5,82,0.00,CLR,,0.00,0.0,WeatherDisplay:10.37,2015-06-02 07:39:00,
2015-06-02 02:44:00,68.0,62.6,30.01,SSE,166,2.0,3.5,83,0.00,CLR,,0.00,0.0,WeatherDisplay:10.37,2015-06-02 07:44:00,
2015-06-02 02:54:00,68.0,62.3,30.01,SSE,168,1.6,2.3,82,0.00,CLR,,0.00,0.0,WeatherDisplay:10.37,2015-06-02 07:54:00,
2015-06-02 02:59:00,68.0,62.3,30.01,SSE,157,0.2,2.3,82,0.00,CLR,,0.00,0.0,WeatherDisplay:10.37,2015-06-02 07:59:00,
2015-06-02 03:04:00,67.9,62.2,30.01,SSE,157,0.0,0.0,82,0.00,CLR,,0.00,0.0,WeatherDisplay:10.37,2015-06-02 08:04:00,
2015-06-02 03:09:00,67.8,62.1,30.01,South,178,0.2,2.3,82,0.00,CLR,,0.00,0.0,WeatherDisplay:10.37,2015-06-02 08:09:00,
2015-06-02 03:14:00,67.7,62.3,30.01,SSE,153,0.8,2.3,83,0.00,CLR,,0.00,0.0,WeatherDisplay:10.37,2015-06-02 08:14:00,
2015-06-02 03:19:00,67.6,62.3,30.01,SSE,152,0.1,1.2,83,0.00,CLR,,0.00,0.0,WeatherDisplay:10.37,2015-06-02 08:19:00,
2015-06-02 03:25:00,67.4,62.1,30.01,South,173,1.1,3.5,83,0.00,CLR,,0.00,0.0,WeatherDisplay:10.37,2015-06-02 08:25:00,
2015-06-02 03:30:00,67.2,62.2,30.01,SSE,153,0.2,1.2,84,0.00,CLR,,0.00,0.0,WeatherDisplay:10.37,2015-06-02 08:30:00,
2015-06-02 03:35:00,67.1,62.1,30.01,South,182,0.1,1.2,84,0.00,CLR,,0.00,0.0,WeatherDisplay:10.37,2015-06-02 08:35:00,
2015-06-02 03:40:00,66.9,61.9,30.01,South,178,0.1,3.5,84,0.00,CLR,,0.00,0.0,WeatherDisplay:10.37,2015-06-02 08:40:00,
2015-06-02 03:45:00,66.8,62.1,30.01,SSW,199,2.0,3.5,85,0.00,CLR,,0.00,0.0,WeatherDisplay:10.37,2015-06-02 08:45:00,
2015-06-02 03:50:00,66.8,62.1,30.01,SSW,199,1.9,3.5,85,0.00,CLR,,0.00,0.0,WeatherDisplay:10.37,2015-06-02 08:50:00,
2015-06-02 03:55:00,66.8,62.1,30.01,SSW,192,2.2,3.5,85,0.00,CLR,,0.00,0.0,WeatherDisplay:10.37,2015-06-02 08:55:00,
2015-06-02 04:00:00,66.8,62.1,30.01,South,180,1.8,4.6,85,0.00,CLR,,0.00,0.0,WeatherDisplay:10.37,2015-06-02 09:00:00,
2015-06-02 04:05:00,66.8,62.1,30.01,South,180,0.8,1.2,85,0.00,CLR,,0.00,0.0,WeatherDisplay:10.37,2015-06-02 09:05:00,
2015-06-02 04:10:00,66.7,62.0,30.01,South,180,1.6,3.5,85,0.00,CLR,,0.00,0.0,WeatherDisplay:10.37,2015-06-02 09:10:00,
2015-06-02 04:15:00,66.6,62.3,30.01,South,180,1.0,2.3,86,0.00,CLR,,0.00,0.0,WeatherDisplay:10.37,2015-06-02 09:15:00,
2015-06-02 04:20:00,66.6,62.3,30.01,South,180,0.5,3.5,86,0.00,CLR,,0.00,0.0,WeatherDisplay:10.37,2015-06-02 09:20:00,
2015-06-02 04:25:00,66.5,62.5,30.01,South,170,1.4,2.3,87,0.00,CLR,,0.00,0.0,WeatherDisplay:10.37,2015-06-02 09:25:00,
2015-06-02 04:30:00,66.5,62.5,30.01,SSE,157,2.8,4.6,87,0.00,CLR,,0.00,0.0,WeatherDisplay:10.37,2015-06-02 09:30:00,
2015-06-02 04:35:00,66.5,62.5,30.01,SSW,196,1.9,3.5,87,0.00,CLR,,0.00,0.0,WeatherDisplay:10.37,2015-06-02 09:35:00,
2015-06-02 04:40:00,66.5,62.5,30.01,SSE,167,2.8,4.6,87,0.00,CLR,,0.00,0.0,WeatherDisplay:10.37,2015-06-02 09:40:00,
2015-06-02 04:45:00,66.5,62.8,30.00,South,172,3.2,4.6,88,0.00,CLR,,0.00,0.0,WeatherDisplay:10.37,2015-06-02 09:45:00,
2015-06-02 04:50:00,66.6,62.9,30.01,South,189,4.1,5.8,88,0.00,CLR,,0.00,0.0,WeatherDisplay:10.37,2015-06-02 09:50:00,
2015-06-02 04:55:00,66.7,63.0,30.00,SSE,166,4.1,4.6,88,0.00,CLR,,0.00,0.0,WeatherDisplay:10.37,2015-06-02 09:55:00,
2015-06-02 05:00:00,66.8,63.1,30.00,South,177,4.1,6.9,88,0.00,CLR,,0.00,0.0,WeatherDisplay:10.37,2015-06-02 10:00:00,
2015-06-02 05:05:00,67.0,63.0,30.00,SSW,194,4.7,5.8,87,0.00,CLR,,0.00,0.0,WeatherDisplay:10.37,2015-06-02 10:05:00,
2015-06-02 05:10:00,67.1,63.1,30.00,SSW,194,6.3,6.9,87,0.00,CLR,,0.00,0.0,WeatherDisplay:10.37,2015-06-02 10:10:00,
2015-06-02 05:15:00,67.3,63.0,30.00,South,178,5.9,8.2,86,0.00,CLR,,0.00,0.0,WeatherDisplay:10.37,2015-06-02 10:15:00,
2015-06-02 05:20:00,67.4,63.1,30.00,South,173,3.9,5.8,86,0.00,CLR,,0.00,0.0,WeatherDisplay:10.37,2015-06-02 10:20:00,
2015-06-02 05:25:00,67.5,62.8,30.00,SSE,160,5.5,6.9,85,0.00,CLR,,0.00,0.0,WeatherDisplay:10.37,2015-06-02 10:25:00,
2015-06-02 05:30:00,67.5,62.8,30.00,SSW,203,3.3,5.1,85,0.00,CLR,,0.00,0.0,WeatherDisplay:10.37,2015-06-02 10:30:00,
2015-06-02 05:35:00,67.5,62.8,30.00,South,180,4.6,5.8,85,0.00,CLR,,0.00,0.0,WeatherDisplay:10.37,2015-06-02 10:35:00,
2015-06-02 05:40:00,67.4,63.1,30.00,SSW,192,4.9,5.8,86,0.00,CLR,,0.00,0.0,WeatherDisplay:10.37,2015-06-02 10:40:00,
2015-06-02 05:45:00,67.4,63.1,30.01,South,177,5.7,5.8,86,0.00,CLR,,0.00,0.0,WeatherDisplay:10.37,2015-06-02 10:45:00,
2015-06-02 05:50:00,67.4,63.1,30.01,South,186,3.9,6.1,86,0.00,CLR,,0.00,0.0,WeatherDisplay:10.37,2015-06-02 10:50:00,
2015-06-02 05:55:00,67.3,62.6,30.01,SSW,203,6.1,7.1,85,0.00,CLR,,0.00,0.0,WeatherDisplay:10.37,2015-06-02 10:55:00,
2015-06-02 06:05:00,67.3,63.0,30.01,SSW,201,3.1,6.1,86,0.00,CLR,,0.00,0.0,WeatherDisplay:10.37,2015-06-02 11:05:00,
2015-06-02 06:10:00,67.3,63.0,30.02,South,189,0.7,4.6,86,0.00,CLR,,0.00,0.0,WeatherDisplay:10.37,2015-06-02 11:10:00,
2015-06-02 06:15:00,67.2,62.9,30.02,South,181,1.0,3.5,86,0.00,CLR,,0.00,0.0,WeatherDisplay:10.37,2015-06-02 11:15:00,
2015-06-02 06:20:00,67.1,62.8,30.02,South,190,2.2,4.6,86,0.00,BKN,,0.00,5.0,WeatherDisplay:10.37,2015-06-02 11:20:00,
2015-06-02 06:25:00,67.0,62.7,30.02,SSE,163,0.1,1.2,86,0.00,BKN,,0.00,7.0,WeatherDisplay:10.37,2015-06-02 11:25:00,
2015-06-02 06:30:00,66.8,62.8,30.02,SSE,164,0.1,1.2,87,0.00,BKN,,0.00,11.0,WeatherDisplay:10.37,2015-06-02 11:30:00,
2015-06-02 06:35:00,66.7,62.7,30.02,SSE,163,0.1,1.2,87,0.00,BKN,,0.00,14.0,WeatherDisplay:10.37,2015-06-02 11:35:00,
2015-06-02 06:40:00,66.7,62.7,30.03,SSE,163,0.5,2.3,87,0.00,BKN,,0.00,19.0,WeatherDisplay:10.37,2015-06-02 11:40:00,
2015-06-02 06:45:00,66.6,62.9,30.03,SE,146,1.4,2.3,88,0.00,BKN,,0.00,25.0,WeatherDisplay:10.37,2015-06-02 11:45:00,
2015-06-02 06:50:00,66.7,63.0,30.03,SSE,166,0.9,3.5,88,0.00,BKN,,0.00,32.0,WeatherDisplay:10.37,2015-06-02 11:50:00,
2015-06-02 06:55:00,66.8,63.1,30.03,SSE,164,2.7,5.8,88,0.00,BKN,,0.00,37.0,WeatherDisplay:10.37,2015-06-02 11:55:00,
2015-06-02 07:00:00,67.0,63.3,30.03,SE,138,3.7,4.6,88,0.00,BKN,,0.00,35.0,WeatherDisplay:10.37,2015-06-02 12:00:00,
2015-06-02 07:05:00,67.2,63.5,30.03,SSE,168,1.6,4.6,88,0.00,BKN,,0.00,35.0,WeatherDisplay:10.37,2015-06-02 12:05:00,
2015-06-02 07:10:00,67.6,63.9,30.03,SSE,147,1.6,4.6,88,0.00,BKN,,0.00,44.0,WeatherDisplay:10.37,2015-06-02 12:10:00,
2015-06-02 07:15:00,67.9,63.9,30.03,SSE,153,3.5,5.8,87,0.00,BKN,,0.00,46.0,WeatherDisplay:10.37,2015-06-02 12:15:00,
2015-06-02 07:20:00,68.3,64.3,30.03,SE,125,3.6,4.6,87,0.00,BKN,,0.00,65.0,WeatherDisplay:10.37,2015-06-02 12:20:00,
2015-06-02 07:25:00,68.8,64.8,30.03,SSE,156,5.2,8.1,87,0.00,BKN,,0.00,49.0,WeatherDisplay:10.37,2015-06-02 12:25:00,
2015-06-02 07:30:00,69.3,64.6,30.03,SE,133,7.7,8.1,85,0.00,BKN,,0.00,51.0,WeatherDisplay:10.37,2015-06-02 12:30:00,
2015-06-02 07:35:00,69.8,65.1,30.03,SE,140,7.3,9.2,85,0.00,BKN,,0.00,54.0,WeatherDisplay:10.37,2015-06-02 12:35:00,
2015-06-02 07:40:00,70.3,65.2,30.03,ESE,119,7.1,12.2,84,0.00,BKN,,0.00,60.0,WeatherDisplay:10.37,2015-06-02 12:40:00,
2015-06-02 07:45:00,70.6,65.2,30.03,SE,144,4.4,9.2,83,0.00,BKN,,0.00,53.0,WeatherDisplay:10.37,2015-06-02 12:45:00,
2015-06-02 07:50:00,70.9,65.1,30.03,SE,134,4.3,9.2,82,0.00,BKN,,0.00,56.0,WeatherDisplay:10.37,2015-06-02 12:50:00,
2015-06-02 07:55:00,71.3,65.2,30.03,SE,126,2.6,6.9,81,0.00,BKN,,0.00,81.0,WeatherDisplay:10.37,2015-06-02 12:55:00,
2015-06-02 08:00:00,71.9,65.4,30.02,South,171,6.2,9.2,80,0.00,BKN,,0.00,105.0,WeatherDisplay:10.37,2015-06-02 13:00:00,
2015-06-02 08:05:00,72.3,65.4,30.02,SSE,163,4.3,10.4,79,0.00,BKN,,0.00,88.0,WeatherDisplay:10.37,2015-06-02 13:05:00,
2015-06-02 08:10:00,72.8,65.2,30.03,SSE,149,6.1,12.7,77,0.00,BKN,,0.00,105.0,WeatherDisplay:10.37,2015-06-02 13:10:00,
2015-06-02 08:15:00,73.1,64.7,30.03,SE,138,8.4,13.8,75,0.00,BKN,,0.00,127.0,WeatherDisplay:10.37,2015-06-02 13:15:00,
2015-06-02 08:20:00,73.4,64.6,30.03,South,182,6.7,10.4,74,0.00,SCT,,0.00,202.0,WeatherDisplay:10.37,2015-06-02 13:20:00,
2015-06-02 08:25:00,73.7,64.5,30.03,ESE,112,9.5,15.0,73,0.00,FEW,,0.00,288.0,WeatherDisplay:10.37,2015-06-02 13:25:00,
2015-06-02 08:30:00,74.0,64.8,30.03,SSE,161,5.1,8.1,73,0.00,FEW,,0.00,295.0,WeatherDisplay:10.37,2015-06-02 13:30:00,
2015-06-02 08:35:00,74.3,64.7,30.03,South,170,7.0,11.5,72,0.00,SCT,,0.00,281.0,WeatherDisplay:10.37,2015-06-02 13:35:00,
2015-06-02 08:40:00,74.6,65.0,30.03,South,181,7.8,11.5,72,0.00,SCT,,0.00,308.0,WeatherDisplay:10.37,2015-06-02 13:40:00,
2015-06-02 08:45:00,75.0,65.4,30.03,SSW,197,10.0,11.5,72,0.00,FEW,,0.00,350.0,WeatherDisplay:10.37,2015-06-02 13:45:00,
2015-06-02 08:50:00,75.3,64.8,30.03,SSE,159,9.3,12.7,70,0.00,FEW,,0.00,373.0,WeatherDisplay:10.37,2015-06-02 13:50:00,
2015-06-02 08:55:00,75.6,65.5,30.03,South,183,5.0,13.3,71,0.00,FEW,,0.00,396.0,WeatherDisplay:10.37,2015-06-02 13:55:00,
2015-06-02 09:00:00,76.1,65.6,30.03,SSE,164,5.9,8.1,70,0.00,FEW,,0.00,418.0,WeatherDisplay:10.37,2015-06-02 14:00:00,
2015-06-02 09:05:00,76.5,65.6,30.03,South,180,10.4,17.3,69,0.00,FEW,,0.00,434.0,WeatherDisplay:10.37,2015-06-02 14:05:00,
2015-06-02 09:10:00,76.6,65.2,30.03,South,173,11.7,17.3,68,0.00,FEW,,0.00,436.0,WeatherDisplay:10.37,2015-06-02 14:10:00,
2015-06-02 09:15:00,76.7,64.9,30.03,SSE,153,9.4,18.4,67,0.00,FEW,,0.00,429.0,WeatherDisplay:10.37,2015-06-02 14:15:00,
2015-06-02 09:20:00,76.8,64.6,30.03,SSE,153,10.7,16.1,66,0.00,FEW,,0.00,471.0,WeatherDisplay:10.37,2015-06-02 14:20:00,
2015-06-02 09:25:00,77.0,64.8,30.03,South,172,12.3,18.4,66,0.00,FEW,,0.00,483.0,WeatherDisplay:10.37,2015-06-02 14:25:00,
2015-06-02 09:30:00,77.3,65.5,30.03,ESE,121,7.3,16.1,67,0.00,FEW,,0.00,513.0,WeatherDisplay:10.37,2015-06-02 14:30:00,
2015-06-02 09:35:00,77.8,65.5,30.03,SSE,166,5.2,15.0,66,0.00,FEW,,0.00,513.0,WeatherDisplay:10.37,2015-06-02 14:35:00,
2015-06-02 09:40:00,78.1,65.4,30.03,SSW,196,9.9,16.1,65,0.00,CLR,,0.00,571.0,WeatherDisplay:10.37,2015-06-02 14:40:00,
2015-06-02 09:45:00,78.2,65.0,30.02,South,183,12.9,18.4,64,0.00,FEW,,0.00,541.0,WeatherDisplay:10.37,2015-06-02 14:45:00,
2015-06-02 09:50:00,78.3,65.1,30.02,South,180,12.4,15.0,64,0.00,FEW,,0.00,534.0,WeatherDisplay:10.37,2015-06-02 14:50:00,
2015-06-02 09:55:00,78.4,65.7,30.02,SSE,152,10.7,18.4,65,0.00,FEW,,0.00,568.0,WeatherDisplay:10.37,2015-06-02 14:55:00,
2015-06-02 10:00:00,78.8,65.6,30.02,SSW,195,11.7,15.0,64,0.00,FEW,,0.00,610.0,WeatherDisplay:10.37,2015-06-02 15:00:00,